This is the latest recevied weather packets stored in our database for station/object WA1NHP. If no packets are shown the sender has not sent any weather packets the latest 10 day(s).
| Time | Temp. | Humidity | Pressure | Rain* | Wind** | Luminosity | Snow |
|---|---|---|---|---|---|---|---|
| 1777788244 | 2.78° C | 83% | 1023.9 hPa | 0 mm | - | 0 W/m² | - |
| 1777787643 | 2.78° C | 83% | 1023.9 hPa | 0 mm | - | 0 W/m² | - |
| 1777787044 | 2.78° C | 81% | 1023.9 hPa | 0 mm | - | 0 W/m² | - |
| 1777786444 | 3.33° C | 80% | 1023.9 hPa | 0 mm | - | 0 W/m² | - |
| 1777785843 | 3.33° C | 80% | 1023.9 hPa | 0 mm | - | 0 W/m² | - |
| 1777785243 | 3.89° C | 78% | 1023.9 hPa | 0 mm | - | 0 W/m² | - |
| 1777784644 | 3.33° C | 75% | 1023.9 hPa | 0 mm | - | 0 W/m² | - |
| 1777784044 | 3.89° C | 76% | 1023.9 hPa | 0 mm | - | 0 W/m² | - |
| 1777783443 | 3.33° C | 72% | 1023.9 hPa | 0 mm | - | 0 W/m² | - |
| 1777782844 | 3.89° C | 69% | 1023.9 hPa | 0 mm | - | 0 W/m² | - |
| 1777782243 | 3.89° C | 70% | 1023.9 hPa | 0 mm | - | 0 W/m² | - |
| 1777781644 | 4.44° C | 67% | 1023.9 hPa | 0 mm | - | 0 W/m² | - |
| 1777781043 | 4.44° C | 61% | 1023.9 hPa | 0 mm | - | 0 W/m² | - |
| 1777780445 | 5° C | 60% | 1023.9 hPa | 0 mm | - | 0 W/m² | - |
| 1777779844 | 5° C | 62% | 1023.9 hPa | 0 mm | - | 0 W/m² | - |
| 1777779244 | 5° C | 62% | 1023.9 hPa | 0 mm | - | 0 W/m² | - |
| 1777778644 | 5.56° C | 59% | 1023.9 hPa | 0 mm | - | 0 W/m² | - |
| 1777778043 | 5.56° C | 60% | 1023.9 hPa | 0 mm | - | 0 W/m² | - |
| 1777777445 | 5.56° C | 59% | 1023.9 hPa | 0 mm | - | 0 W/m² | - |
| 1777776845 | 5.56° C | 61% | 1023.9 hPa | 0 mm | - | 0 W/m² | - |
| 1777776244 | 6.11° C | 60% | 1023.9 hPa | 0 mm | - | 0 W/m² | - |
| 1777775644 | 6.11° C | 62% | 1023.9 hPa | 0 mm | - | 0 W/m² | - |
| 1777775044 | 6.11° C | 59% | 1023.9 hPa | 0 mm | - | 0 W/m² | - |
| 1777774443 | 6.11° C | 64% | 1023.9 hPa | 0 mm | - | 0 W/m² | - |
| 1777773844 | 6.11° C | 62% | 1023.9 hPa | 0 mm | - | 0 W/m² | - |
* Rain latest hour (hover to see other rain measurements)
** Current wind speed in m/s (hover to see current wind gust speed)